Location: Montamat
(43.4852°N, 0.8444°E)
Time: 12:33:33
(UTC+00:00)

Cosmos 1805 - Pass Details

Date: 14 May 2026
Orbit: 411 x 414 km, 82.5° (Epoch: 8 June)

Event Time Altitude Azimuth Distance (km) Brightness Sun altitude
Rises 21:16:35 0° 357° (N) 2,377 7.5 -18.1°
Reaches altitude 10° 21:18:42 10° 4° (N) 1,506 6.2 -18.4°
Enters shadow 21:21:45 44° 72° (ENE) 592 3.3 -18.7°
